カタログに戻る

STARLINK-34951

運用中通信SSO
NORAD 65293·PAYLOAD·🇺🇸 United States

打ち上げ Aug 22, 2025 から Vandenberg Space Force Base

Loading…

次のパス (今後24時間)

TLE

最新Source: CelesTrak SupGP

元期: Sep 14, 2026, 21:23 UTC

1 65293C 25184W   26257.89145833 -.00007255  00000+0 -22512-3 0  2570
2 65293  97.2831 305.9456 0000290  56.0414 359.4720 15.33456313    15

AllMySatでSTARLINK-34951をリアルタイム追跡

Download on the App Store